This demonstration page uses our WeatherBlox Daily Observations layout. Learn more.

38.89511, -77.03637

Hourly Observations for June 27, 2018

Temp ( °F °C ) Dew Point ( °F °C ) Humidity (%) Winds ( mph kmh ) Pressure ( in mb ) Visibility ( mi km ) Precip ( " mm )
12:52 am 00:52 Cloudy 72 22.2 59 15 64 64 S 6 9 30.09 1019 10 16.09344 0 0
1:52 am 01:52 Cloudy 71 21.7 61 16.1 71 71 SSE 5 7 30.09 1019 10 16.09344 0 0
2:52 am 02:52 Cloudy 71 21.7 62 16.7 73 73 S 3 6 30.09 1019 10 16.09344 0 0
3:52 am 03:52 Cloudy 71 21.7 62 16.7 73 73 SE 5 7 30.06 1018 10 16.09344 0 0
4:44 am 04:44 Cloudy 71 21.7 62 16.7 73 73 Calm 30.09 1019 10 16.09344 0 0
4:52 am 04:52 Cloudy 71 21.7 62 16.7 73 73 ESE 3 6 30.06 1018 10 16.09344 0 0
5:52 am 05:52 Cloudy 71 21.7 63 17.2 76 76 SSE 5 7 30.06 1018 10 16.09344 0 0
6:17 am 06:17 Cloudy 71 21.7 64 17.8 79 79 SSE 5 7 30.09 1019 10 16.09344 0 0
6:52 am 06:52 Cloudy 71 21.7 64 17.8 79 79 S 3 6 30.06 1018 10 16.09344 0 0
6:59 am 06:59 Cloudy 71 21.7 64 17.8 79 79 S 3 6 30.06 1018 10 16.09344 0 0
7:52 am 07:52 Cloudy 72 22.2 65 18.3 79 79 S 7 11 30.03 1017 10 16.09344 0 0
8:00 am 08:00 Cloudy 72 22.2 65 18.3 79 79 SSW 6 9 30.06 1018 10 16.09344 0 0
8:52 am 08:52 Cloudy 73 22.8 67 19.4 81 81 S 7 11 30.03 1017 10 16.09344 0 0
9:35 am 09:35 Cloudy 75 23.9 68 20 79 79 S 8 13 30.06 1018 10 16.09344 0 0
9:52 am 09:52 Cloudy 76 24.4 68 20 77 77 S 10 17 30.03 1017 10 16.09344 0 0
10:09 am 10:09 Cloudy 75 23.9 68 20 79 79 S 10 17 30.03 1017 10 16.09344 0 0
10:52 am 10:52 Cloudy 76 24.4 68 20 77 77 S 12 19 30.03 1017 10 16.09344 0 0
11:37 am 11:37 Cloudy 77 25 69 20.6 77 77 S 9 15 30.03 1017 10 16.09344 0.001 0.001
11:52 am 11:52 Cloudy 77 25 69 20.6 77 77 S 7 11 30 1016 10 16.09344 0.001 0.001
12:52 pm 12:52 Cloudy 78 25.6 71 21.7 79 79 SSW 8 13 30 1016 10 16.09344 0.04 1.016
1:52 pm 13:52 Cloudy 77 25 70 21.1 79 79 S 9 15 29.97 1015 10 16.09344 0 0
2:52 pm 14:52 Cloudy 81 27.2 70 21.1 69 69 SSW 10 17 29.94 1014 10 16.09344 0 0
3:52 pm 15:52 Cloudy 80 26.7 70 21.1 71 71 S 13 20 29.91 1013 10 16.09344 0 0
4:52 pm 16:52 Cloudy 81 27.2 71 21.7 72 72 S 13 20 29.91 1013 10 16.09344 0 0
5:52 pm 17:52 Cloudy 81 27.2 71 21.7 72 72 S 12 19 29.85 1011 10 16.09344 0 0
6:30 pm 18:30 Mostly Cloudy with Thunderstorms 82 27.8 72 22.2 72 72 S 9 15 29.88 1012 10 16.09344 0 0
6:45 pm 18:45 Mostly Cloudy 81 27.2 72 22.2 74 74 S 12 19 29.88 1012 10 16.09344 0 0
6:52 pm 18:52 Mostly Cloudy 81 27.2 72 22.2 74 74 S 12 19 29.85 1011 10 16.09344 0 0
7:52 pm 19:52 Mostly Cloudy 80 26.7 72 22.2 76 76 SSE 14 22 29.85 1011 10 16.09344 0 0
8:52 pm 20:52 Mostly Cloudy 79 26.1 72 22.2 79 79 S 12 19 29.85 1011 10 16.09344 0 0
9:52 pm 21:52 Mostly Cloudy 78 25.6 72 22.2 82 82 S 15 24 29.85 1011 10 16.09344 0 0
10:32 pm 22:32 Mostly Cloudy 77 25 72 22.2 85 85 S 12 19 29.88 1012 10 16.09344 0 0
10:52 pm 22:52 Mostly Cloudy 77 25 72 22.2 85 85 S 10 17 29.85 1011 10 16.09344 0 0
11:14 pm 23:14 Mostly Cloudy 77 25 72 22.2 85 85 S 10 17 29.88 1012 10 16.09344 0 0
11:45 pm 23:45 Cloudy 76 24.4 72 22.2 88 88 S 9 15 29.85 1011 10 16.09344 0 0
11:52 pm 23:52 Cloudy 76 24.4 72 22.2 88 88 S 9 15 29.85 1011 10 16.09344 0 0

Powered by AerisWeather